Year,Month,Day,Hour,Minute,Value (Times are PST for insolation in W/m^2)
2018,06,26,00,00,0.00
2018,06,26,00,01,0.00
2018,06,26,00,02,0.00
2018,06,26,00,03,0.00
2018,06,26,00,04,0.00
2018,06,26,00,05,0.00
2018,06,26,00,06,0.00
2018,06,26,00,07,0.00
2018,06,26,00,08,0.00
2018,06,26,00,09,0.00
2018,06,26,00,10,0.00
2018,06,26,00,11,0.00
2018,06,26,00,12,0.00
2018,06,26,00,13,0.00
2018,06,26,00,14,0.00
2018,06,26,00,15,0.00
2018,06,26,00,16,0.00
2018,06,26,00,17,0.00
2018,06,26,00,18,0.00
2018,06,26,00,19,0.00
2018,06,26,00,20,0.00
2018,06,26,00,21,0.00
2018,06,26,00,22,0.00
2018,06,26,00,23,0.00
2018,06,26,00,24,0.00
2018,06,26,00,25,0.00
2018,06,26,00,26,0.00
2018,06,26,00,27,0.00
2018,06,26,00,28,0.00
2018,06,26,00,29,0.00
2018,06,26,00,30,0.00
2018,06,26,00,31,0.00
2018,06,26,00,32,0.00
2018,06,26,00,33,0.00
2018,06,26,00,34,0.00
2018,06,26,00,35,0.00
2018,06,26,00,36,0.00
2018,06,26,00,37,0.00
2018,06,26,00,38,0.00
2018,06,26,00,39,0.00
2018,06,26,00,40,0.00
2018,06,26,00,41,0.00
2018,06,26,00,42,0.00
2018,06,26,00,43,0.00
2018,06,26,00,44,0.00
2018,06,26,00,45,0.00
2018,06,26,00,46,0.00
2018,06,26,00,47,0.00
2018,06,26,00,48,0.00
2018,06,26,00,49,0.00
2018,06,26,00,50,0.00
2018,06,26,00,51,0.00
2018,06,26,00,52,0.00
2018,06,26,00,53,0.00
2018,06,26,00,54,0.00
2018,06,26,00,55,0.00
2018,06,26,00,56,0.00
2018,06,26,00,57,0.00
2018,06,26,00,58,0.00
2018,06,26,00,59,0.00
2018,06,26,01,00,0.00
2018,06,26,01,01,0.00
2018,06,26,01,02,0.00
2018,06,26,01,03,0.00
2018,06,26,01,04,0.00
2018,06,26,01,05,0.00
2018,06,26,01,06,0.00
2018,06,26,01,07,0.00
2018,06,26,01,08,0.00
2018,06,26,01,09,0.00
2018,06,26,01,10,0.00
2018,06,26,01,11,0.00
2018,06,26,01,12,0.00
2018,06,26,01,13,0.00
2018,06,26,01,14,0.00
2018,06,26,01,15,0.00
2018,06,26,01,16,0.00
2018,06,26,01,17,0.00
2018,06,26,01,18,0.00
2018,06,26,01,19,0.00
2018,06,26,01,20,0.00
2018,06,26,01,21,0.00
2018,06,26,01,22,0.00
2018,06,26,01,23,0.00
2018,06,26,01,24,0.00
2018,06,26,01,25,0.00
2018,06,26,01,26,0.00
2018,06,26,01,27,0.00
2018,06,26,01,28,0.00
2018,06,26,01,29,0.00
2018,06,26,01,30,0.00
2018,06,26,01,31,0.00
2018,06,26,01,32,0.00
2018,06,26,01,33,0.00
2018,06,26,01,34,0.00
2018,06,26,01,35,0.00
2018,06,26,01,36,0.00
2018,06,26,01,37,0.00
2018,06,26,01,38,0.00
2018,06,26,01,39,0.00
2018,06,26,01,40,0.00
2018,06,26,01,41,0.00
2018,06,26,01,42,0.00
2018,06,26,01,43,0.00
2018,06,26,01,44,0.00
2018,06,26,01,45,0.00
2018,06,26,01,46,0.00
2018,06,26,01,47,0.00
2018,06,26,01,48,0.00
2018,06,26,01,49,0.00
2018,06,26,01,50,0.00
2018,06,26,01,51,0.00
2018,06,26,01,52,0.00
2018,06,26,01,53,0.00
2018,06,26,01,54,0.00
2018,06,26,01,55,0.00
2018,06,26,01,56,0.00
2018,06,26,01,57,0.00
2018,06,26,01,58,0.00
2018,06,26,01,59,0.00
2018,06,26,02,00,0.00
2018,06,26,02,01,0.00
2018,06,26,02,02,0.00
2018,06,26,02,03,0.00
2018,06,26,02,04,0.00
2018,06,26,02,05,0.00
2018,06,26,02,06,0.00
2018,06,26,02,07,0.00
2018,06,26,02,08,0.00
2018,06,26,02,09,0.00
2018,06,26,02,10,0.00
2018,06,26,02,11,0.00
2018,06,26,02,12,0.00
2018,06,26,02,13,0.00
2018,06,26,02,14,0.00
2018,06,26,02,15,0.00
2018,06,26,02,16,0.00
2018,06,26,02,17,0.00
2018,06,26,02,18,0.00
2018,06,26,02,19,0.00
2018,06,26,02,20,0.00
2018,06,26,02,21,0.00
2018,06,26,02,22,0.00
2018,06,26,02,23,0.00
2018,06,26,02,24,0.00
2018,06,26,02,25,0.00
2018,06,26,02,26,0.00
2018,06,26,02,27,0.00
2018,06,26,02,28,0.00
2018,06,26,02,29,0.00
2018,06,26,02,30,0.00
2018,06,26,02,31,0.00
2018,06,26,02,32,0.00
2018,06,26,02,33,0.00
2018,06,26,02,34,0.00
2018,06,26,02,35,0.00
2018,06,26,02,36,0.00
2018,06,26,02,37,0.00
2018,06,26,02,38,0.00
2018,06,26,02,39,0.00
2018,06,26,02,40,0.00
2018,06,26,02,41,0.00
2018,06,26,02,42,0.00
2018,06,26,02,43,0.00
2018,06,26,02,44,0.00
2018,06,26,02,45,0.00
2018,06,26,02,46,0.00
2018,06,26,02,47,0.00
2018,06,26,02,48,0.00
2018,06,26,02,49,0.00
2018,06,26,02,50,0.00
2018,06,26,02,51,0.00
2018,06,26,02,52,0.00
2018,06,26,02,53,0.00
2018,06,26,02,54,0.00
2018,06,26,02,55,0.00
2018,06,26,02,56,0.00
2018,06,26,02,57,0.00
2018,06,26,02,58,0.00
2018,06,26,02,59,0.00
2018,06,26,03,00,0.00
2018,06,26,03,01,0.00
2018,06,26,03,02,0.00
2018,06,26,03,03,0.00
2018,06,26,03,04,0.00
2018,06,26,03,05,0.00
2018,06,26,03,06,0.00
2018,06,26,03,07,0.00
2018,06,26,03,08,0.00
2018,06,26,03,09,0.00
2018,06,26,03,10,0.00
2018,06,26,03,11,0.00
2018,06,26,03,12,0.00
2018,06,26,03,13,0.00
2018,06,26,03,14,0.00
2018,06,26,03,15,0.00
2018,06,26,03,16,0.00
2018,06,26,03,17,0.00
2018,06,26,03,18,0.00
2018,06,26,03,19,0.00
2018,06,26,03,20,0.00
2018,06,26,03,21,0.00
2018,06,26,03,22,0.00
2018,06,26,03,23,0.00
2018,06,26,03,24,0.00
2018,06,26,03,25,0.00
2018,06,26,03,26,0.00
2018,06,26,03,27,0.00
2018,06,26,03,28,0.00
2018,06,26,03,29,0.00
2018,06,26,03,30,0.00
2018,06,26,03,31,0.00
2018,06,26,03,32,0.00
2018,06,26,03,33,0.00
2018,06,26,03,34,0.00
2018,06,26,03,35,0.00
2018,06,26,03,36,0.00
2018,06,26,03,37,0.00
2018,06,26,03,38,0.00
2018,06,26,03,39,0.00
2018,06,26,03,40,0.00
2018,06,26,03,41,0.00
2018,06,26,03,42,0.00
2018,06,26,03,43,0.00
2018,06,26,03,44,0.00
2018,06,26,03,45,0.00
2018,06,26,03,46,0.00
2018,06,26,03,47,0.00
2018,06,26,03,48,0.00
2018,06,26,03,49,0.00
2018,06,26,03,50,0.00
2018,06,26,03,51,0.00
2018,06,26,03,52,0.00
2018,06,26,03,53,0.00
2018,06,26,03,54,0.00
2018,06,26,03,55,0.00
2018,06,26,03,56,0.00
2018,06,26,03,57,0.00
2018,06,26,03,58,0.00
2018,06,26,03,59,0.00
2018,06,26,04,00,0.00
2018,06,26,04,01,0.00
2018,06,26,04,02,0.00
2018,06,26,04,03,0.00
2018,06,26,04,04,0.00
2018,06,26,04,05,0.00
2018,06,26,04,06,0.00
2018,06,26,04,07,0.00
2018,06,26,04,08,0.00
2018,06,26,04,09,0.00
2018,06,26,04,10,0.00
2018,06,26,04,11,0.00
2018,06,26,04,12,0.00
2018,06,26,04,13,0.00
2018,06,26,04,14,0.00
2018,06,26,04,15,0.00
2018,06,26,04,16,0.00
2018,06,26,04,17,0.00
2018,06,26,04,18,0.00
2018,06,26,04,19,0.00
2018,06,26,04,20,0.00
2018,06,26,04,21,0.00
2018,06,26,04,22,0.00
2018,06,26,04,23,0.00
2018,06,26,04,24,0.00
2018,06,26,04,25,0.00
2018,06,26,04,26,0.00
2018,06,26,04,27,0.00
2018,06,26,04,28,0.00
2018,06,26,04,29,0.00
2018,06,26,04,30,0.00
2018,06,26,04,31,0.00
2018,06,26,04,32,0.00
2018,06,26,04,33,0.00
2018,06,26,04,34,0.00
2018,06,26,04,35,0.00
2018,06,26,04,36,0.00
2018,06,26,04,37,0.00
2018,06,26,04,38,0.00
2018,06,26,04,39,0.00
2018,06,26,04,40,0.00
2018,06,26,04,41,0.00
2018,06,26,04,42,0.00
2018,06,26,04,43,0.00
2018,06,26,04,44,0.00
2018,06,26,04,45,0.00
2018,06,26,04,46,0.00
2018,06,26,04,47,0.00
2018,06,26,04,48,0.00
2018,06,26,04,49,0.00
2018,06,26,04,50,0.00
2018,06,26,04,51,0.00
2018,06,26,04,52,0.00
2018,06,26,04,53,0.00
2018,06,26,04,54,0.00
2018,06,26,04,55,0.00
2018,06,26,04,56,0.00
2018,06,26,04,57,0.00
2018,06,26,04,58,0.00
2018,06,26,04,59,0.00
2018,06,26,05,00,0.00
2018,06,26,05,01,0.00
2018,06,26,05,02,0.00
2018,06,26,05,03,0.00
2018,06,26,05,04,0.00
2018,06,26,05,05,0.00
2018,06,26,05,06,0.00
2018,06,26,05,07,0.00
2018,06,26,05,08,0.00
2018,06,26,05,09,0.00
2018,06,26,05,10,0.00
2018,06,26,05,11,0.00
2018,06,26,05,12,0.00
2018,06,26,05,13,0.00
2018,06,26,05,14,0.00
2018,06,26,05,15,0.00
2018,06,26,05,16,4.50
2018,06,26,05,17,5.00
2018,06,26,05,18,5.00
2018,06,26,05,19,5.00
2018,06,26,05,20,5.00
2018,06,26,05,21,5.00
2018,06,26,05,22,5.00
2018,06,26,05,23,6.50
2018,06,26,05,24,7.00
2018,06,26,05,25,7.00
2018,06,26,05,26,7.00
2018,06,26,05,27,7.00
2018,06,26,05,28,7.00
2018,06,26,05,29,8.00
2018,06,26,05,30,9.00
2018,06,26,05,31,9.00
2018,06,26,05,32,9.00
2018,06,26,05,33,9.00
2018,06,26,05,34,9.20
2018,06,26,05,35,11.00
2018,06,26,05,36,11.00
2018,06,26,05,37,11.00
2018,06,26,05,38,11.00
2018,06,26,05,39,11.00
2018,06,26,05,40,11.80
2018,06,26,05,41,12.00
2018,06,26,05,42,12.00
2018,06,26,05,43,12.00
2018,06,26,05,44,12.00
2018,06,26,05,45,12.70
2018,06,26,05,46,14.00
2018,06,26,05,47,14.00
2018,06,26,05,48,14.00
2018,06,26,05,49,14.00
2018,06,26,05,50,14.00
2018,06,26,05,51,15.90
2018,06,26,05,52,16.00
2018,06,26,05,53,16.00
2018,06,26,05,54,16.80
2018,06,26,05,55,18.50
2018,06,26,05,56,23.40
2018,06,26,05,57,30.20
2018,06,26,05,58,34.50
2018,06,26,05,59,38.70
2018,06,26,06,00,40.00
2018,06,26,06,01,41.00
2018,06,26,06,02,44.00
2018,06,26,06,03,41.80
2018,06,26,06,04,35.80
2018,06,26,06,05,29.80
2018,06,26,06,06,25.80
2018,06,26,06,07,23.30
2018,06,26,06,08,25.10
2018,06,26,06,09,28.80
2018,06,26,06,10,33.00
2018,06,26,06,11,31.90
2018,06,26,06,12,28.20
2018,06,26,06,13,25.40
2018,06,26,06,14,23.70
2018,06,26,06,15,24.60
2018,06,26,06,16,25.90
2018,06,26,06,17,27.60
2018,06,26,06,18,45.50
2018,06,26,06,19,54.40
2018,06,26,06,20,46.60
2018,06,26,06,21,35.00
2018,06,26,06,22,26.80
2018,06,26,06,23,25.70
2018,06,26,06,24,25.10
2018,06,26,06,25,25.00
2018,06,26,06,26,26.30
2018,06,26,06,27,32.30
2018,06,26,06,28,32.60
2018,06,26,06,29,29.20
2018,06,26,06,30,26.00
2018,06,26,06,31,26.00
2018,06,26,06,32,26.00
2018,06,26,06,33,26.00
2018,06,26,06,34,26.00
2018,06,26,06,35,26.00
2018,06,26,06,36,26.00
2018,06,26,06,37,26.00
2018,06,26,06,38,27.00
2018,06,26,06,39,28.00
2018,06,26,06,40,28.00
2018,06,26,06,41,28.00
2018,06,26,06,42,28.00
2018,06,26,06,43,28.40
2018,06,26,06,44,32.00
2018,06,26,06,45,30.60
2018,06,26,06,46,28.00
2018,06,26,06,47,29.00
2018,06,26,06,48,30.00
2018,06,26,06,49,30.00
2018,06,26,06,50,31.70
2018,06,26,06,51,31.90
2018,06,26,06,52,30.00
2018,06,26,06,53,30.60
2018,06,26,06,54,32.00
2018,06,26,06,55,31.10
2018,06,26,06,56,30.00
2018,06,26,06,57,30.00
2018,06,26,06,58,30.00
2018,06,26,06,59,30.00
2018,06,26,07,00,30.20
2018,06,26,07,01,32.00
2018,06,26,07,02,32.00
2018,06,26,07,03,32.00
2018,06,26,07,04,32.00
2018,06,26,07,05,32.00
2018,06,26,07,06,32.00
2018,06,26,07,07,32.00
2018,06,26,07,08,32.00
2018,06,26,07,09,32.00
2018,06,26,07,10,32.00
2018,06,26,07,11,32.30
2018,06,26,07,12,33.00
2018,06,26,07,13,33.00
2018,06,26,07,14,33.00
2018,06,26,07,15,33.00
2018,06,26,07,16,33.00
2018,06,26,07,17,33.00
2018,06,26,07,18,33.00
2018,06,26,07,19,33.00
2018,06,26,07,20,33.00
2018,06,26,07,21,33.00
2018,06,26,07,22,33.00
2018,06,26,07,23,34.40
2018,06,26,07,24,35.00
2018,06,26,07,25,35.00
2018,06,26,07,26,35.00
2018,06,26,07,27,35.00
2018,06,26,07,28,35.00
2018,06,26,07,29,35.00
2018,06,26,07,30,35.00
2018,06,26,07,31,35.00
2018,06,26,07,32,35.00
2018,06,26,07,33,38.40
2018,06,26,07,34,39.80
2018,06,26,07,35,36.70
2018,06,26,07,36,35.50
2018,06,26,07,37,37.00
2018,06,26,07,38,37.00
2018,06,26,07,39,38.20
2018,06,26,07,40,44.50
2018,06,26,07,41,60.50
2018,06,26,07,42,58.70
2018,06,26,07,43,39.10
2018,06,26,07,44,40.80
2018,06,26,07,45,45.50
2018,06,26,07,46,51.80
2018,06,26,07,47,69.80
2018,06,26,07,48,88.80
2018,06,26,07,49,81.20
2018,06,26,07,50,57.60
2018,06,26,07,51,46.40
2018,06,26,07,52,51.30
2018,06,26,07,53,51.90
2018,06,26,07,54,48.40
2018,06,26,07,55,44.80
2018,06,26,07,56,40.30
2018,06,26,07,57,39.00
2018,06,26,07,58,39.00
2018,06,26,07,59,39.00
2018,06,26,08,00,39.20
2018,06,26,08,01,42.80
2018,06,26,08,02,45.50
2018,06,26,08,03,44.00
2018,06,26,08,04,49.70
2018,06,26,08,05,48.80
2018,06,26,08,06,45.40
2018,06,26,08,07,40.90
2018,06,26,08,08,43.80
2018,06,26,08,09,97.30
2018,06,26,08,10,131.50
2018,06,26,08,11,124.80
2018,06,26,08,12,117.30
2018,06,26,08,13,71.90
2018,06,26,08,14,47.10
2018,06,26,08,15,48.20
2018,06,26,08,16,47.40
2018,06,26,08,17,44.00
2018,06,26,08,18,45.70
2018,06,26,08,19,53.80
2018,06,26,08,20,57.50
2018,06,26,08,21,58.10
2018,06,26,08,22,48.30
2018,06,26,08,23,42.00
2018,06,26,08,24,43.60
2018,06,26,08,25,42.20
2018,06,26,08,26,42.50
2018,06,26,08,27,48.20
2018,06,26,08,28,56.80
2018,06,26,08,29,68.60
2018,06,26,08,30,81.00
2018,06,26,08,31,135.40
2018,06,26,08,32,167.00
2018,06,26,08,33,167.00
2018,06,26,08,34,438.90
2018,06,26,08,35,455.30
2018,06,26,08,36,457.80
2018,06,26,08,37,461.40
2018,06,26,08,38,463.80
2018,06,26,08,39,467.60
2018,06,26,08,40,470.30
2018,06,26,08,41,472.50
2018,06,26,08,42,475.70
2018,06,26,08,43,480.10
2018,06,26,08,44,482.20
2018,06,26,08,45,484.20
2018,06,26,08,46,487.80
2018,06,26,08,47,490.40
2018,06,26,08,48,493.20
2018,06,26,08,49,495.40
2018,06,26,08,50,498.50
2018,06,26,08,51,502.60
2018,06,26,08,52,504.20
2018,06,26,08,53,506.80
2018,06,26,08,54,510.60
2018,06,26,08,55,512.40
2018,06,26,08,56,515.00
2018,06,26,08,57,518.20
2018,06,26,08,58,519.00
2018,06,26,08,59,523.20
2018,06,26,09,00,526.20
2018,06,26,09,01,531.30
2018,06,26,09,02,533.30
2018,06,26,09,03,534.70
2018,06,26,09,04,537.90
2018,06,26,09,05,541.70
2018,06,26,09,06,545.70
2018,06,26,09,07,547.80
2018,06,26,09,08,551.40
2018,06,26,09,09,554.30
2018,06,26,09,10,557.40
2018,06,26,09,11,559.70
2018,06,26,09,12,561.90
2018,06,26,09,13,564.50
2018,06,26,09,14,567.30
2018,06,26,09,15,569.40
2018,06,26,09,16,572.50
2018,06,26,09,17,574.80
2018,06,26,09,18,578.60
2018,06,26,09,19,582.60
2018,06,26,09,20,586.40
2018,06,26,09,21,592.20
2018,06,26,09,22,597.10
2018,06,26,09,23,601.50
2018,06,26,09,24,605.40
2018,06,26,09,25,611.40
2018,06,26,09,26,617.40
2018,06,26,09,27,625.30
2018,06,26,09,28,635.10
2018,06,26,09,29,642.60
2018,06,26,09,30,651.50
2018,06,26,09,31,658.90
2018,06,26,09,32,663.10
2018,06,26,09,33,667.20
2018,06,26,09,34,672.80
2018,06,26,09,35,679.70
2018,06,26,09,36,687.20
2018,06,26,09,37,693.20
2018,06,26,09,38,698.90
2018,06,26,09,39,700.50
2018,06,26,09,40,704.60
2018,06,26,09,41,712.00
2018,06,26,09,42,721.20
2018,06,26,09,43,733.00
2018,06,26,09,44,747.00
2018,06,26,09,45,762.30
2018,06,26,09,46,771.10
2018,06,26,09,47,780.10
2018,06,26,09,48,792.60
2018,06,26,09,49,804.50
2018,06,26,09,50,814.20
2018,06,26,09,51,816.00
2018,06,26,09,52,818.00
2018,06,26,09,53,829.90
2018,06,26,09,54,840.00
2018,06,26,09,55,840.00
2018,06,26,09,56,831.10
2018,06,26,09,57,850.90
2018,06,26,09,58,869.50
2018,06,26,09,59,883.50
2018,06,26,10,00,900.40
2018,06,26,10,01,918.10
2018,06,26,10,02,932.10
2018,06,26,10,03,940.20
2018,06,26,10,04,946.00
2018,06,26,10,05,963.20
2018,06,26,10,06,983.70
2018,06,26,10,07,1002.80
2018,06,26,10,08,1018.00
2018,06,26,10,09,1032.10
2018,06,26,10,10,1044.70
2018,06,26,10,11,1034.50
2018,06,26,10,12,1031.00
2018,06,26,10,13,1025.00
2018,06,26,10,14,1031.30
2018,06,26,10,15,1049.70
2018,06,26,10,16,1068.20
2018,06,26,10,17,1072.00
2018,06,26,10,18,1072.00
2018,06,26,10,19,960.50
2018,06,26,10,20,626.00
2018,06,26,10,21,626.00
2018,06,26,10,22,626.00
2018,06,26,10,23,626.00
2018,06,26,10,24,913.20
2018,06,26,10,25,962.20
2018,06,26,10,26,1044.80
2018,06,26,10,27,988.00
2018,06,26,10,28,988.00
2018,06,26,10,29,780.60
2018,06,26,10,30,425.00
2018,06,26,10,31,425.00
2018,06,26,10,32,380.50
2018,06,26,10,33,360.00
2018,06,26,10,34,360.00
2018,06,26,10,35,356.40
2018,06,26,10,36,365.00
2018,06,26,10,37,348.00
2018,06,26,10,38,348.00
2018,06,26,10,39,348.00
2018,06,26,10,40,661.20
2018,06,26,10,41,870.00
2018,06,26,10,42,452.40
2018,06,26,10,43,348.00
2018,06,26,10,44,343.40
2018,06,26,10,45,313.10
2018,06,26,10,46,336.00
2018,06,26,10,47,395.80
2018,06,26,10,48,478.00
2018,06,26,10,49,478.00
2018,06,26,10,50,478.00
2018,06,26,10,51,1024.30
2018,06,26,10,52,1085.00
2018,06,26,10,53,1085.00
2018,06,26,10,54,1085.00
2018,06,26,10,55,1085.00
2018,06,26,10,56,1085.00
2018,06,26,10,57,965.60
2018,06,26,10,58,886.00
2018,06,26,10,59,886.00
2018,06,26,11,00,886.00
2018,06,26,11,01,886.00
2018,06,26,11,02,789.40
2018,06,26,11,03,427.00
2018,06,26,11,04,711.80
2018,06,26,11,05,1062.80
2018,06,26,11,06,1065.00
2018,06,26,11,07,633.80
2018,06,26,11,08,558.20
2018,06,26,11,09,594.50
2018,06,26,11,10,1042.10
2018,06,26,11,11,1050.00
2018,06,26,11,12,1049.10
2018,06,26,11,13,1039.90
2018,06,26,11,14,1041.00
2018,06,26,11,15,1041.00
2018,06,26,11,16,1041.00
2018,06,26,11,17,395.00
2018,06,26,11,18,288.20
2018,06,26,11,19,290.60
2018,06,26,11,20,294.30
2018,06,26,11,21,296.60
2018,06,26,11,22,301.50
2018,06,26,11,23,308.30
2018,06,26,11,24,316.20
2018,06,26,11,25,322.00
2018,06,26,11,26,329.30
2018,06,26,11,27,351.80
2018,06,26,11,28,384.00
2018,06,26,11,29,364.60
2018,06,26,11,30,362.00
2018,06,26,11,31,362.00
2018,06,26,11,32,363.30
2018,06,26,11,33,360.20
2018,06,26,11,34,349.20
2018,06,26,11,35,345.10
2018,06,26,11,36,341.80
2018,06,26,11,37,327.90
2018,06,26,11,38,321.40
2018,06,26,11,39,313.50
2018,06,26,11,40,307.80
2018,06,26,11,41,304.60
2018,06,26,11,42,304.00
2018,06,26,11,43,315.40
2018,06,26,11,44,344.00
2018,06,26,11,45,380.00
2018,06,26,11,46,528.20
2018,06,26,11,47,874.00
2018,06,26,11,48,622.50
2018,06,26,11,49,371.00
2018,06,26,11,50,371.00
2018,06,26,11,51,371.00
2018,06,26,11,52,371.00
2018,06,26,11,53,382.10
2018,06,26,11,54,445.00
2018,06,26,11,55,445.00
2018,06,26,11,56,795.50
2018,06,26,11,57,1220.80
2018,06,26,11,58,1246.80
2018,06,26,11,59,1195.50
2018,06,26,12,00,1179.00
2018,06,26,12,01,1179.00
2018,06,26,12,02,1179.00
2018,06,26,12,03,998.70
2018,06,26,12,04,578.00
2018,06,26,12,05,539.10
2018,06,26,12,06,504.00
2018,06,26,12,07,504.00
2018,06,26,12,08,411.40
2018,06,26,12,09,374.90
2018,06,26,12,10,368.50
2018,06,26,12,11,365.00
2018,06,26,12,12,362.00
2018,06,26,12,13,365.10
2018,06,26,12,14,374.00
2018,06,26,12,15,388.90
2018,06,26,12,16,454.80
2018,06,26,12,17,444.60
2018,06,26,12,18,407.80
2018,06,26,12,19,407.40
2018,06,26,12,20,417.10
2018,06,26,12,21,443.00
2018,06,26,12,22,482.00
2018,06,26,12,23,482.00
2018,06,26,12,24,421.80
2018,06,26,12,25,418.40
2018,06,26,12,26,478.90
2018,06,26,12,27,485.00
2018,06,26,12,28,485.00
2018,06,26,12,29,485.00
2018,06,26,12,30,485.00
2018,06,26,12,31,485.00
2018,06,26,12,32,993.30
2018,06,26,12,33,1261.10
2018,06,26,12,34,1218.20
2018,06,26,12,35,1211.00
2018,06,26,12,36,1104.20
2018,06,26,12,37,499.00
2018,06,26,12,38,410.60
2018,06,26,12,39,278.00
2018,06,26,12,40,278.00
2018,06,26,12,41,278.00
2018,06,26,12,42,831.50
2018,06,26,12,43,1000.60
2018,06,26,12,44,990.90
2018,06,26,12,45,989.20
2018,06,26,12,46,988.80
2018,06,26,12,47,995.00
2018,06,26,12,48,996.50
2018,06,26,12,49,954.20
2018,06,26,12,50,971.20
2018,06,26,12,51,1007.00
2018,06,26,12,52,1024.20
2018,06,26,12,53,1034.20
2018,06,26,12,54,1018.80
2018,06,26,12,55,1023.10
2018,06,26,12,56,1026.10
2018,06,26,12,57,1018.40
2018,06,26,12,58,1007.20
2018,06,26,12,59,995.80
2018,06,26,13,00,991.30
2018,06,26,13,01,992.00
2018,06,26,13,02,1005.00
2018,06,26,13,03,1021.60
2018,06,26,13,04,1020.20
2018,06,26,13,05,1016.00
2018,06,26,13,06,1016.00
2018,06,26,13,07,1013.90
2018,06,26,13,08,1017.00
2018,06,26,13,09,941.30
2018,06,26,13,10,842.00
2018,06,26,13,11,893.40
2018,06,26,13,12,1075.50
2018,06,26,13,13,1035.20
2018,06,26,13,14,1004.50
2018,06,26,13,15,992.40
2018,06,26,13,16,992.50
2018,06,26,13,17,991.30
2018,06,26,13,18,992.90
2018,06,26,13,19,993.80
2018,06,26,13,20,999.10
2018,06,26,13,21,1005.70
2018,06,26,13,22,1013.60
2018,06,26,13,23,1032.00
2018,06,26,13,24,1056.60
2018,06,26,13,25,1080.80
2018,06,26,13,26,1107.20
2018,06,26,13,27,1145.80
2018,06,26,13,28,1178.00
2018,06,26,13,29,1178.00
2018,06,26,13,30,1184.80
2018,06,26,13,31,1191.00
2018,06,26,13,32,1180.40
2018,06,26,13,33,1170.80
2018,06,26,13,34,1177.00
2018,06,26,13,35,1205.10
2018,06,26,13,36,1225.00
2018,06,26,13,37,1225.00
2018,06,26,13,38,1203.70
2018,06,26,13,39,1153.70
2018,06,26,13,40,1130.00
2018,06,26,13,41,1124.90
2018,06,26,13,42,1139.80
2018,06,26,13,43,1144.00
2018,06,26,13,44,1110.10
2018,06,26,13,45,1104.20
2018,06,26,13,46,1120.90
2018,06,26,13,47,1143.40
2018,06,26,13,48,1145.90
2018,06,26,13,49,1148.00
2018,06,26,13,50,1125.60
2018,06,26,13,51,1108.40
2018,06,26,13,52,1102.50
2018,06,26,13,53,1087.10
2018,06,26,13,54,1099.10
2018,06,26,13,55,1118.00
2018,06,26,13,56,1130.10
2018,06,26,13,57,1113.00
2018,06,26,13,58,1113.00
2018,06,26,13,59,1113.00
2018,06,26,14,00,1113.80
2018,06,26,14,01,1113.80
2018,06,26,14,02,1110.70
2018,06,26,14,03,1124.00
2018,06,26,14,04,1164.00
2018,06,26,14,05,1206.00
2018,06,26,14,06,1206.00
2018,06,26,14,07,1234.70
2018,06,26,14,08,1248.00
2018,06,26,14,09,1248.00
2018,06,26,14,10,1248.00
2018,06,26,14,11,1103.20
2018,06,26,14,12,524.00
2018,06,26,14,13,524.00
2018,06,26,14,14,451.00
2018,06,26,14,15,331.80
2018,06,26,14,16,295.80
2018,06,26,14,17,327.70
2018,06,26,14,18,288.50
2018,06,26,14,19,296.50
2018,06,26,14,20,322.00
2018,06,26,14,21,322.00
2018,06,26,14,22,688.80
2018,06,26,14,23,1106.50
2018,06,26,14,24,1044.20
2018,06,26,14,25,955.80
2018,06,26,14,26,1012.80
2018,06,26,14,27,984.10
2018,06,26,14,28,985.60
2018,06,26,14,29,979.50
2018,06,26,14,30,967.40
2018,06,26,14,31,976.80
2018,06,26,14,32,990.00
2018,06,26,14,33,990.00
2018,06,26,14,34,990.00
2018,06,26,14,35,927.90
2018,06,26,14,36,918.00
2018,06,26,14,37,917.60
2018,06,26,14,38,914.60
2018,06,26,14,39,910.70
2018,06,26,14,40,908.00
2018,06,26,14,41,905.00
2018,06,26,14,42,906.20
2018,06,26,14,43,910.40
2018,06,26,14,44,905.00
2018,06,26,14,45,897.50
2018,06,26,14,46,895.30
2018,06,26,14,47,894.20
2018,06,26,14,48,892.80
2018,06,26,14,49,893.80
2018,06,26,14,50,890.20
2018,06,26,14,51,885.10
2018,06,26,14,52,885.80
2018,06,26,14,53,887.60
2018,06,26,14,54,883.60
2018,06,26,14,55,881.10
2018,06,26,14,56,879.80
2018,06,26,14,57,881.00
2018,06,26,14,58,878.60
2018,06,26,14,59,877.00
2018,06,26,15,00,880.40
2018,06,26,15,01,888.20
2018,06,26,15,02,898.00
2018,06,26,15,03,902.50
2018,06,26,15,04,916.00
2018,06,26,15,05,916.00
2018,06,26,15,06,916.00
2018,06,26,15,07,916.00
2018,06,26,15,08,916.00
2018,06,26,15,09,947.50
2018,06,26,15,10,951.10
2018,06,26,15,11,951.00
2018,06,26,15,12,945.80
2018,06,26,15,13,942.00
2018,06,26,15,14,936.00
2018,06,26,15,15,912.00
2018,06,26,15,16,912.00
2018,06,26,15,17,470.40
2018,06,26,15,18,440.50
2018,06,26,15,19,490.10
2018,06,26,15,20,866.00
2018,06,26,15,21,913.80
2018,06,26,15,22,891.00
2018,06,26,15,23,891.00
2018,06,26,15,24,891.00
2018,06,26,15,25,891.00
2018,06,26,15,26,891.00
2018,06,26,15,27,861.90
2018,06,26,15,28,817.90
2018,06,26,15,29,840.00
2018,06,26,15,30,839.30
2018,06,26,15,31,836.50
2018,06,26,15,32,833.80
2018,06,26,15,33,833.00
2018,06,26,15,34,831.50
2018,06,26,15,35,830.10
2018,06,26,15,36,827.60
2018,06,26,15,37,823.80
2018,06,26,15,38,823.30
2018,06,26,15,39,822.80
2018,06,26,15,40,819.90
2018,06,26,15,41,817.20
2018,06,26,15,42,813.20
2018,06,26,15,43,810.40
2018,06,26,15,44,809.10
2018,06,26,15,45,806.70
2018,06,26,15,46,804.40
2018,06,26,15,47,801.30
2018,06,26,15,48,798.20
2018,06,26,15,49,795.50
2018,06,26,15,50,795.00
2018,06,26,15,51,793.40
2018,06,26,15,52,791.30
2018,06,26,15,53,788.10
2018,06,26,15,54,788.50
2018,06,26,15,55,785.40
2018,06,26,15,56,784.00
2018,06,26,15,57,783.00
2018,06,26,15,58,780.80
2018,06,26,15,59,777.90
2018,06,26,16,00,773.80
2018,06,26,16,01,773.00
2018,06,26,16,02,768.20
2018,06,26,16,03,769.60
2018,06,26,16,04,767.40
2018,06,26,16,05,765.50
2018,06,26,16,06,762.90
2018,06,26,16,07,759.70
2018,06,26,16,08,759.00
2018,06,26,16,09,758.20
2018,06,26,16,10,754.10
2018,06,26,16,11,752.00
2018,06,26,16,12,751.20
2018,06,26,16,13,748.30
2018,06,26,16,14,745.60
2018,06,26,16,15,744.00
2018,06,26,16,16,742.70
2018,06,26,16,17,738.80
2018,06,26,16,18,737.10
2018,06,26,16,19,735.00
2018,06,26,16,20,735.00
2018,06,26,16,21,733.20
2018,06,26,16,22,727.70
2018,06,26,16,23,727.00
2018,06,26,16,24,725.60
2018,06,26,16,25,724.00
2018,06,26,16,26,721.50
2018,06,26,16,27,714.60
2018,06,26,16,28,712.30
2018,06,26,16,29,713.60
2018,06,26,16,30,710.60
2018,06,26,16,31,708.00
2018,06,26,16,32,707.40
2018,06,26,16,33,707.00
2018,06,26,16,34,701.80
2018,06,26,16,35,700.00
2018,06,26,16,36,696.00
2018,06,26,16,37,693.80
2018,06,26,16,38,693.00
2018,06,26,16,39,692.30
2018,06,26,16,40,690.00
2018,06,26,16,41,687.80
2018,06,26,16,42,684.90
2018,06,26,16,43,680.80
2018,06,26,16,44,680.00
2018,06,26,16,45,678.40
2018,06,26,16,46,674.60
2018,06,26,16,47,672.00
2018,06,26,16,48,669.20
2018,06,26,16,49,667.00
2018,06,26,16,50,664.70
2018,06,26,16,51,661.80
2018,06,26,16,52,661.00
2018,06,26,16,53,659.00
2018,06,26,16,54,656.50
2018,06,26,16,55,653.40
2018,06,26,16,56,651.30
2018,06,26,16,57,648.70
2018,06,26,16,58,645.90
2018,06,26,16,59,645.00
2018,06,26,17,00,643.40
2018,06,26,17,01,640.30
2018,06,26,17,02,637.70
2018,06,26,17,03,634.60
2018,06,26,17,04,632.40
2018,06,26,17,05,630.20
2018,06,26,17,06,627.50